TimeCDT,TemperatureF,Dew PointF,Humidity,Sea Level PressureIn,VisibilityMPH,Wind Direction,Wind SpeedMPH,Gust SpeedMPH,PrecipitationIn,Events,Conditions,WindDirDegrees,DateUTC
12:53 AM,69.1,64.9,87,30.02,10.0,Calm,Calm,-,N/A,,Clear,0,2012-10-06 05:53:00
1:53 AM,68.0,66.0,93,30.02,5.0,Calm,Calm,-,N/A,,Clear,0,2012-10-06 06:53:00
2:53 AM,66.9,66.0,97,30.01,5.0,Calm,Calm,-,N/A,,Clear,0,2012-10-06 07:53:00
3:20 AM,66.2,64.4,94,30.01,1.5,Calm,Calm,-,N/A,,Clear,0,2012-10-06 08:20:00
3:37 AM,66.2,64.4,94,30.01,2.0,Calm,Calm,-,N/A,,Clear,0,2012-10-06 08:37:00
3:45 AM,66.2,64.4,94,30.01,1.2,Calm,Calm,-,N/A,,Clear,0,2012-10-06 08:45:00
3:53 AM,66.9,64.9,93,30.01,0.5,Calm,Calm,-,N/A,Fog,Fog,0,2012-10-06 08:53:00
4:01 AM,66.2,64.4,94,30.00,0.2,Calm,Calm,-,N/A,Fog,Fog,0,2012-10-06 09:01:00
4:07 AM,66.2,64.4,94,30.00,1.0,Calm,Calm,-,N/A,,Clear,0,2012-10-06 09:07:00
4:15 AM,66.2,64.4,94,30.00,10.0,Calm,Calm,-,N/A,,Clear,0,2012-10-06 09:15:00
4:53 AM,66.9,64.9,93,30.01,8.0,Calm,Calm,-,N/A,,Clear,0,2012-10-06 09:53:00
5:53 AM,66.9,64.9,93,30.02,4.0,Calm,Calm,-,N/A,,Clear,0,2012-10-06 10:53:00
6:18 AM,66.2,64.4,94,30.02,2.0,Calm,Calm,-,N/A,,Clear,0,2012-10-06 11:18:00
6:45 AM,66.2,64.4,94,30.03,4.0,Calm,Calm,-,N/A,,Clear,0,2012-10-06 11:45:00
6:53 AM,66.0,64.0,93,30.03,4.0,Calm,Calm,-,N/A,,Clear,0,2012-10-06 11:53:00
7:09 AM,66.2,64.4,94,30.03,2.5,Calm,Calm,-,N/A,,Partly Cloudy,0,2012-10-06 12:09:00
7:19 AM,64.4,64.4,100,30.03,4.0,Calm,Calm,-,N/A,,Clear,0,2012-10-06 12:19:00
7:40 AM,66.2,64.4,94,30.03,0.8,Calm,Calm,-,N/A,,Mist,0,2012-10-06 12:40:00
7:53 AM,66.9,66.0,97,30.03,1.2,Calm,Calm,-,N/A,,Mostly Cloudy,0,2012-10-06 12:53:00
8:09 AM,69.8,66.2,88,30.04,2.5,Calm,Calm,-,0.01,,Mostly Cloudy,0,2012-10-06 13:09:00
8:16 AM,69.8,66.2,88,30.04,2.5,Calm,Calm,-,0.01,,Scattered Clouds,0,2012-10-06 13:16:00
8:23 AM,69.8,68.0,94,30.04,3.0,Calm,Calm,-,0.01,,Partly Cloudy,0,2012-10-06 13:23:00
8:53 AM,71.6,68.0,88,30.05,5.0,NE,3.5,-,N/A,,Clear,40,2012-10-06 13:53:00
9:53 AM,75.9,69.1,79,30.05,10.0,NNE,3.5,-,N/A,,Clear,20,2012-10-06 14:53:00
10:53 AM,80.1,68.0,67,30.05,10.0,NNW,6.9,-,N/A,,Mostly Cloudy,340,2012-10-06 15:53:00
11:08 AM,80.6,66.2,61,30.05,10.0,NE,6.9,-,N/A,,Scattered Clouds,40,2012-10-06 16:08:00
11:53 AM,82.9,66.9,58,30.04,10.0,North,6.9,-,N/A,,Scattered Clouds,10,2012-10-06 16:53:00
12:53 PM,81.0,68.0,65,30.03,10.0,North,10.4,18.4,N/A,,Partly Cloudy,10,2012-10-06 17:53:00
1:53 PM,80.1,66.0,62,30.00,10.0,North,10.4,-,N/A,,Clear,350,2012-10-06 18:53:00
2:53 PM,81.0,66.0,60,29.98,10.0,North,8.1,-,N/A,,Clear,360,2012-10-06 19:53:00
3:53 PM,82.0,66.0,58,29.98,10.0,North,9.2,-,N/A,,Clear,360,2012-10-06 20:53:00
4:53 PM,80.1,64.9,60,29.97,10.0,North,9.2,-,N/A,,Clear,350,2012-10-06 21:53:00
5:53 PM,78.8,64.4,61,29.97,10.0,North,10.4,-,N/A,,Clear,10,2012-10-06 22:53:00
6:53 PM,73.0,63.0,71,29.99,10.0,NNE,8.1,-,N/A,,Clear,20,2012-10-06 23:53:00
7:53 PM,69.1,60.1,73,30.01,10.0,NNE,13.8,-,N/A,,Clear,20,2012-10-07 00:53:00
8:53 PM,64.0,57.0,78,30.04,10.0,North,16.1,-,N/A,,Clear,10,2012-10-07 01:53:00
9:53 PM,60.1,55.0,83,30.06,10.0,North,13.8,19.6,N/A,,Clear,10,2012-10-07 02:53:00
10:12 PM,60.8,55.4,82,30.06,10.0,North,12.7,-,N/A,,Mostly Cloudy,10,2012-10-07 03:12:00
10:53 PM,60.1,54.0,80,30.06,10.0,NNE,16.1,21.9,N/A,,Overcast,20,2012-10-07 03:53:00
11:53 PM,57.9,53.1,84,30.07,10.0,NNE,15.0,-,N/A,,Overcast,20,2012-10-07 04:53:00